Location: Chippewa Lake
(41.0698°N, 81.9010°W)
Time: 13:14:39
(UTC+00:00)

SL-8 Rocket - Pass Details

Date: 05 October 2021
Orbit: 957 x 990 km, 82.9° (Epoch: 24 October)

Event Time Altitude Azimuth Distance (km) Brightness Sun altitude
Rises 00:37:40 0° 195° (SSW) 3,677 7.1 -18.4°
Reaches altitude 10° 00:40:12 10° 198° (SSW) 2,736 6.4 -18.9°
Maximum altitude 00:46:26 64° 280° (W) 1,094 4.5 -20.1°
Drops below altitude 10° 00:52:43 10° 1° (N) 2,760 6.5 -21.2°
Sets 00:55:17 0° 5° (N) 3,712 7.1 -21.7°
